Location: Murdochville
(48.9591°N, 65.4950°W)
Time: 22:53:52
(UTC-04:00)

Envisat - Pass Details

Date: 20 April 2026
Orbit: 761 x 762 km, 98.4° (Epoch: 15 May)

Event Time Altitude Azimuth Distance (km) Brightness Sun altitude
Rises 02:28:17 0° 20° (NNE) 3,235 7.6 -23.3°
Reaches altitude 10° 02:30:45 10° 28° (NNE) 2,304 6.6 -23.1°
Maximum altitude 02:35:30 39° 97° (E) 1,131 4.0 -22.6°
Enters shadow 02:38:00 24° 150° (SSE) 1,550 4.3 -22.4°
